UCT712 KABQ-KMHR

Flight info

Callsign UCT712
Flight time 1h 49m
Altitude 30000
Route LARGO3 RSK ILC MVA AMRVR2
Aircraft MD11/H-SDE1E2E3FGHIJ2J3J4J5M1RWXY/LB1D1

Departure

Time 2026-05-03 23:39
Airport Albuquerque International Sunport (KABQ)

Arrival

Time 2026-05-04 01:28
Airport Sacramento Mather Airport (KMHR)
Time Latitude Longitude Altitude Speed Heading
2026-05-03 23:06 35.03035 -106.62505 5331 ft 0 kts 315°
2026-05-03 23:22 35.03014 -106.62484 5331 ft 2 kts 337°
2026-05-03 23:22 35.02999 -106.62479 5331 ft 2 kts 354°
2026-05-03 23:22 35.02984 -106.62480 5331 ft 2 kts 12°
2026-05-03 23:23 35.02970 -106.62485 5331 ft 2 kts 29°
2026-05-03 23:23 35.02960 -106.62495 5331 ft 0 kts 44°
2026-05-03 23:23 35.02957 -106.62499 5331 ft 0 kts 46°
2026-05-03 23:24 35.02957 -106.62498 5331 ft 0 kts 46°
2026-05-03 23:27 35.02982 -106.62469 5331 ft 11 kts 44°
2026-05-03 23:27 35.03044 -106.62394 5331 ft 13 kts 44°
2026-05-03 23:27 35.03112 -106.62312 5331 ft 13 kts 44°
2026-05-03 23:27 35.03172 -106.62240 5332 ft 9 kts 44°
2026-05-03 23:28 35.03189 -106.62176 5332 ft 8 kts 116°
2026-05-03 23:28 35.03188 -106.62110 5332 ft 8 kts 53°
2026-05-03 23:28 35.03234 -106.62054 5332 ft 12 kts 44°
2026-05-03 23:28 35.03332 -106.61938 5332 ft 23 kts 45°
2026-05-03 23:29 35.03446 -106.61799 5332 ft 23 kts 45°
2026-05-03 23:29 35.03558 -106.61663 5336 ft 21 kts 44°
2026-05-03 23:29 35.03667 -106.61532 5336 ft 21 kts 45°
2026-05-03 23:29 35.03758 -106.61429 5336 ft 16 kts 25°
2026-05-03 23:30 35.03872 -106.61392 5336 ft 16 kts 11°
2026-05-03 23:30 35.03989 -106.61385 5336 ft 17 kts
2026-05-03 23:30 35.04114 -106.61381 5337 ft 19 kts 359°
2026-05-03 23:30 35.04230 -106.61372 5337 ft 13 kts 31°
2026-05-03 23:31 35.04247 -106.61267 5337 ft 13 kts 93°
2026-05-03 23:31 35.04243 -106.61123 5338 ft 19 kts 90°
2026-05-03 23:31 35.04243 -106.60967 5340 ft 17 kts 90°
2026-05-03 23:31 35.04242 -106.60811 5340 ft 19 kts 90°
2026-05-03 23:32 35.04240 -106.60641 5340 ft 20 kts 91°
2026-05-03 23:32 35.04250 -106.60473 5340 ft 19 kts 75°
2026-05-03 23:32 35.04259 -106.60317 5342 ft 18 kts 90°
2026-05-03 23:32 35.04257 -106.60154 5343 ft 20 kts 90°
2026-05-03 23:33 35.04256 -106.59975 5344 ft 21 kts 90°
2026-05-03 23:33 35.04254 -106.59796 5344 ft 21 kts 90°
2026-05-03 23:33 35.04254 -106.59622 5347 ft 19 kts 90°
2026-05-03 23:33 35.04253 -106.59459 5348 ft 19 kts 91°
2026-05-03 23:34 35.04249 -106.59297 5349 ft 18 kts 88°
2026-05-03 23:34 35.04251 -106.59144 5351 ft 17 kts 90°
2026-05-03 23:34 35.04250 -106.58991 5352 ft 20 kts 90°
2026-05-03 23:34 35.04255 -106.58816 5354 ft 20 kts 79°
2026-05-03 23:35 35.04262 -106.58650 5356 ft 19 kts 90°
2026-05-03 23:35 35.04260 -106.58493 5358 ft 17 kts 90°
2026-05-03 23:35 35.04259 -106.58350 5361 ft 16 kts 90°
2026-05-03 23:35 35.04259 -106.58217 5364 ft 16 kts 90°
2026-05-03 23:36 35.04258 -106.58044 5368 ft 21 kts 90°
2026-05-03 23:36 35.04256 -106.57867 5371 ft 20 kts 90°
2026-05-03 23:36 35.04255 -106.57699 5373 ft 18 kts 90°
2026-05-03 23:36 35.04277 -106.57586 5374 ft 10 kts 33°
2026-05-03 23:37 35.04343 -106.57572 5375 ft 9 kts
2026-05-03 23:37 35.04396 -106.57587 5376 ft 7 kts 317°
2026-05-03 23:37 35.04406 -106.57640 5375 ft 2 kts 270°
2026-05-03 23:37 35.04407 -106.57693 5374 ft 17 kts 270°
2026-05-03 23:38 35.04409 -106.58114 5367 ft 84 kts 270°
2026-05-03 23:38 35.04415 -106.59100 5352 ft 147 kts 270°
2026-05-03 23:38 35.04424 -106.60569 5354 ft 193 kts 270°
2026-05-03 23:38 35.04470 -106.62195 5795 ft 192 kts 269°
2026-05-03 23:39 35.04528 -106.63843 6253 ft 196 kts 268°
2026-05-03 23:39 35.04578 -106.65501 6827 ft 196 kts 268°
2026-05-03 23:39 35.04619 -106.67144 7280 ft 202 kts 268°
2026-05-03 23:39 35.04646 -106.68903 7655 ft 213 kts 268°
2026-05-03 23:40 35.04657 -106.70761 8018 ft 226 kts 268°
2026-05-03 23:40 35.04650 -106.72768 8202 ft 252 kts 267°
2026-05-03 23:40 35.04622 -106.74994 8557 ft 271 kts 266°
2026-05-03 23:40 35.04574 -106.77335 9147 ft 285 kts 266°
2026-05-03 23:41 35.04511 -106.79733 9980 ft 289 kts 266°
2026-05-03 23:41 35.04429 -106.82234 10659 ft 302 kts 266°
2026-05-03 23:41 35.04328 -106.84875 10944 ft 328 kts 266°
2026-05-03 23:41 35.04208 -106.87797 11161 ft 357 kts 266°
2026-05-03 23:42 35.04096 -106.90889 11660 ft 374 kts 266°
2026-05-03 23:42 35.03983 -106.94064 12394 ft 383 kts 267°
2026-05-03 23:42 35.03860 -106.97285 13291 ft 386 kts 267°
2026-05-03 23:42 35.04017 -107.00568 14113 ft 390 kts 281°
2026-05-03 23:43 35.04946 -107.03645 15087 ft 392 kts 297°
2026-05-03 23:43 35.06599 -107.06287 15983 ft 398 kts 314°
2026-05-03 23:43 35.08849 -107.08279 16879 ft 404 kts 328°
2026-05-03 23:43 35.11353 -107.09800 17778 ft 406 kts 330°
2026-05-03 23:44 35.13886 -107.11266 18569 ft 409 kts 330°
2026-05-03 23:44 35.16469 -107.12791 19324 ft 413 kts 330°
2026-05-03 23:44 35.19070 -107.14347 20063 ft 417 kts 329°
2026-05-03 23:44 35.21660 -107.15909 20728 ft 421 kts 329°
2026-05-03 23:45 35.24273 -107.17492 21474 ft 424 kts 329°
2026-05-03 23:45 35.26942 -107.19111 22174 ft 427 kts 329°
2026-05-03 23:45 35.29603 -107.20723 22814 ft 432 kts 328°
2026-05-03 23:45 35.32310 -107.22363 23497 ft 435 kts 328°
2026-05-03 23:46 35.35030 -107.24011 24194 ft 437 kts 328°
2026-05-03 23:46 35.37766 -107.25669 24803 ft 441 kts 328°
2026-05-03 23:46 35.40483 -107.27315 25405 ft 443 kts 327°
2026-05-03 23:46 35.43271 -107.29005 26011 ft 446 kts 327°
2026-05-03 23:47 35.46065 -107.30696 26628 ft 447 kts 327°
2026-05-03 23:47 35.48822 -107.32363 27305 ft 447 kts 327°
2026-05-03 23:47 35.51627 -107.34064 27859 ft 449 kts 326°
2026-05-03 23:47 35.54442 -107.35767 28418 ft 451 kts 326°
2026-05-03 23:48 35.57213 -107.37444 29118 ft 449 kts 326°
2026-05-03 23:48 35.60019 -107.39139 29815 ft 447 kts 326°
2026-05-03 23:48 35.62803 -107.40828 30123 ft 444 kts 326°
2026-05-03 23:48 35.65541 -107.42488 30176 ft 441 kts 326°
2026-05-03 23:49 35.71041 -107.45824 30196 ft 441 kts 326°
2026-05-03 23:49 35.76548 -107.49158 30202 ft 442 kts 325°
2026-05-03 23:50 35.81167 -107.51954 30198 ft 443 kts 326°
2026-05-03 23:50 35.87593 -107.55901 30200 ft 442 kts 325°
2026-05-03 23:51 35.93071 -107.59298 30198 ft 442 kts 325°
2026-05-03 23:51 35.98555 -107.62697 30185 ft 442 kts 325°
2026-05-03 23:52 36.04052 -107.66104 30187 ft 442 kts 324°
2026-05-03 23:52 36.09559 -107.69511 30186 ft 441 kts 324°
2026-05-03 23:53 36.15043 -107.72907 30174 ft 441 kts 324°
2026-05-03 23:53 36.20546 -107.76313 30185 ft 441 kts 325°
2026-05-03 23:54 36.26055 -107.79722 30197 ft 441 kts 325°
2026-05-03 23:54 36.31548 -107.83115 30170 ft 442 kts 325°
2026-05-03 23:55 36.37105 -107.86555 30163 ft 442 kts 325°
2026-05-03 23:55 36.42621 -107.89966 30179 ft 444 kts 325°
2026-05-03 23:56 36.48142 -107.93377 30159 ft 444 kts 325°
2026-05-03 23:56 36.53688 -107.96807 30165 ft 445 kts 326°
2026-05-03 23:57 36.59279 -108.00269 30140 ft 444 kts 326°
2026-05-03 23:57 36.64783 -108.03722 30114 ft 444 kts 326°
2026-05-03 23:58 36.70124 -108.07490 30111 ft 436 kts 317°
2026-05-03 23:58 36.74432 -108.12709 30089 ft 426 kts 302°
2026-05-03 23:59 36.77372 -108.19005 30105 ft 420 kts 288°
2026-05-03 23:59 36.79177 -108.25954 30083 ft 418 kts 284°
2026-05-04 00:00 36.80934 -108.32864 30106 ft 418 kts 285°
2026-05-04 00:00 36.82719 -108.39769 30101 ft 418 kts 285°
2026-05-04 00:01 36.84513 -108.46659 30113 ft 419 kts 285°
2026-05-04 00:01 36.86323 -108.53589 30104 ft 419 kts 285°
2026-05-04 00:02 36.88142 -108.60527 30125 ft 420 kts 285°
2026-05-04 00:02 36.89973 -108.67493 30126 ft 421 kts 284°
2026-05-04 00:03 36.91799 -108.74440 30102 ft 424 kts 284°
2026-05-04 00:03 36.93657 -108.81479 30110 ft 424 kts 284°
2026-05-04 00:04 36.95502 -108.88448 30089 ft 425 kts 284°
2026-05-04 00:04 36.97375 -108.95515 30071 ft 428 kts 284°
2026-05-04 00:05 36.99260 -109.02605 30065 ft 429 kts 283°
2026-05-04 00:05 37.01149 -109.09715 30072 ft 433 kts 284°
2026-05-04 00:06 37.03049 -109.16835 30059 ft 434 kts 284°
2026-05-04 00:06 37.04928 -109.24032 30071 ft 435 kts 282°
2026-05-04 00:07 37.06713 -109.31267 30063 ft 437 kts 283°
2026-05-04 00:07 37.08532 -109.38565 30067 ft 439 kts 283°
2026-05-04 00:08 37.10375 -109.45921 30057 ft 442 kts 283°
2026-05-04 00:08 37.12226 -109.53291 30065 ft 442 kts 283°
2026-05-04 00:09 37.14080 -109.60637 30063 ft 443 kts 283°
2026-05-04 00:09 37.15948 -109.68034 30069 ft 446 kts 283°
2026-05-04 00:10 37.17836 -109.75475 30058 ft 447 kts 283°
2026-05-04 00:10 37.19719 -109.82899 30060 ft 448 kts 283°
2026-05-04 00:11 37.21623 -109.90376 30073 ft 449 kts 283°
2026-05-04 00:11 37.23524 -109.97829 30083 ft 450 kts 283°
2026-05-04 00:12 37.25436 -110.05280 30079 ft 450 kts 283°
2026-05-04 00:12 37.27353 -110.12775 30075 ft 448 kts 283°
2026-05-04 00:13 37.29267 -110.20222 30066 ft 446 kts 283°
2026-05-04 00:13 37.31052 -110.27662 30066 ft 445 kts 282°
2026-05-04 00:14 37.32826 -110.35122 30057 ft 445 kts 282°
2026-05-04 00:14 37.34597 -110.42490 30050 ft 442 kts 282°
2026-05-04 00:15 37.36373 -110.49869 30036 ft 442 kts 282°
2026-05-04 00:15 37.38162 -110.57269 30043 ft 443 kts 283°
2026-05-04 00:16 37.39947 -110.64623 30033 ft 443 kts 283°
2026-05-04 00:16 37.41749 -110.72038 30034 ft 441 kts 282°
2026-05-04 00:17 37.43546 -110.79403 30038 ft 439 kts 282°
2026-05-04 00:17 37.45323 -110.86697 30044 ft 437 kts 282°
2026-05-04 00:18 37.47120 -110.94015 30045 ft 438 kts 282°
2026-05-04 00:18 37.48912 -111.01331 30049 ft 439 kts 282°
2026-05-04 00:19 37.50731 -111.08718 30052 ft 440 kts 282°
2026-05-04 00:19 37.52543 -111.16052 30065 ft 440 kts 282°
2026-05-04 00:20 37.54324 -111.23429 30081 ft 439 kts 281°
2026-05-04 00:20 37.56008 -111.30847 30080 ft 442 kts 281°
2026-05-04 00:21 37.57708 -111.38284 30094 ft 442 kts 282°
2026-05-04 00:21 37.59426 -111.45736 30111 ft 442 kts 282°
2026-05-04 00:22 37.61150 -111.53188 30128 ft 445 kts 282°
2026-05-04 00:22 37.62892 -111.60681 30133 ft 446 kts 282°
2026-05-04 00:23 37.64629 -111.68171 30148 ft 447 kts 281°
2026-05-04 00:23 37.66392 -111.75717 30147 ft 447 kts 282°
2026-05-04 00:24 37.68149 -111.83209 30170 ft 448 kts 282°
2026-05-04 00:24 37.69939 -111.90842 30164 ft 449 kts 282°
2026-05-04 00:25 37.71720 -111.98415 30172 ft 452 kts 282°
2026-05-04 00:25 37.73517 -112.06042 30159 ft 453 kts 282°
2026-05-04 00:26 37.75319 -112.13660 30149 ft 454 kts 282°
2026-05-04 00:26 37.77121 -112.21273 30162 ft 455 kts 282°
2026-05-04 00:27 37.78814 -112.28981 30170 ft 457 kts 281°
2026-05-04 00:27 37.80501 -112.36718 30161 ft 459 kts 281°
2026-05-04 00:28 37.82217 -112.44503 30166 ft 460 kts 281°
2026-05-04 00:28 37.83938 -112.52290 30143 ft 459 kts 281°
2026-05-04 00:29 37.85665 -112.60075 30149 ft 462 kts 281°
2026-05-04 00:29 37.87409 -112.67905 30141 ft 464 kts 281°
2026-05-04 00:30 37.89161 -112.75769 30134 ft 465 kts 281°
2026-05-04 00:30 37.90930 -112.83652 30106 ft 468 kts 281°
2026-05-04 00:31 37.92708 -112.91576 30084 ft 469 kts 281°
2026-05-04 00:31 37.94503 -112.99548 30067 ft 471 kts 281°
2026-05-04 00:32 37.96306 -113.07513 30088 ft 472 kts 281°
2026-05-04 00:32 37.98119 -113.15528 30057 ft 471 kts 281°
2026-05-04 00:33 38.00761 -113.27487 30046 ft 469 kts 280°
2026-05-04 00:34 38.02411 -113.35440 30053 ft 467 kts 280°
2026-05-04 00:34 38.04073 -113.43381 30048 ft 466 kts 281°
2026-05-04 00:35 38.05747 -113.51332 30064 ft 465 kts 281°
2026-05-04 00:35 38.07429 -113.59265 30069 ft 465 kts 281°
2026-05-04 00:36 38.09116 -113.67204 30088 ft 463 kts 280°
2026-05-04 00:36 38.10797 -113.75100 30091 ft 463 kts 281°
2026-05-04 00:37 38.12474 -113.82930 30092 ft 462 kts 281°
2026-05-04 00:37 38.14162 -113.90813 30097 ft 461 kts 281°
2026-05-04 00:38 38.15857 -113.98687 30091 ft 461 kts 281°
2026-05-04 00:38 38.17561 -114.06574 30107 ft 459 kts 281°
2026-05-04 00:39 38.19252 -114.14406 30105 ft 461 kts 281°
2026-05-04 00:39 38.20958 -114.22261 30092 ft 462 kts 281°
2026-05-04 00:40 38.22623 -114.30139 30083 ft 462 kts 280°
2026-05-04 00:40 38.24348 -114.38010 30064 ft 463 kts 281°
2026-05-04 00:41 38.25644 -114.46044 30075 ft 460 kts 274°
2026-05-04 00:41 38.26451 -114.54089 30068 ft 459 kts 274°
2026-05-04 00:42 38.27215 -114.62152 30053 ft 458 kts 273°
2026-05-04 00:42 38.27978 -114.70264 30056 ft 460 kts 273°
2026-05-04 00:43 38.28745 -114.78330 30047 ft 461 kts 273°
2026-05-04 00:43 38.29514 -114.86382 30048 ft 461 kts 273°
2026-05-04 00:44 38.30297 -114.94494 30054 ft 463 kts 273°
2026-05-04 00:44 38.31084 -115.02644 30052 ft 462 kts 273°
2026-05-04 00:45 38.31879 -115.10799 30049 ft 465 kts 273°
2026-05-04 00:45 38.32683 -115.18965 30042 ft 466 kts 274°
2026-05-04 00:46 38.33489 -115.27123 30041 ft 466 kts 274°
2026-05-04 00:46 38.34307 -115.35317 30049 ft 468 kts 274°
2026-05-04 00:47 38.35137 -115.43572 30046 ft 470 kts 274°
2026-05-04 00:47 38.35972 -115.51867 30049 ft 472 kts 274°
2026-05-04 00:48 38.36726 -115.60152 30050 ft 473 kts 273°
2026-05-04 00:48 38.37407 -115.68515 30035 ft 474 kts 272°
2026-05-04 00:49 38.38106 -115.76852 30030 ft 474 kts 273°
2026-05-04 00:49 38.38832 -115.85268 30030 ft 476 kts 273°
2026-05-04 00:50 38.39558 -115.93639 30041 ft 477 kts 273°
2026-05-04 00:50 38.40287 -116.02039 30041 ft 479 kts 274°
2026-05-04 00:51 38.41033 -116.10482 30048 ft 479 kts 274°
2026-05-04 00:51 38.41780 -116.18903 30047 ft 479 kts 274°
2026-05-04 00:52 38.42528 -116.27336 30042 ft 479 kts 274°
2026-05-04 00:52 38.43294 -116.35790 30024 ft 480 kts 274°
2026-05-04 00:53 38.44053 -116.44191 30029 ft 480 kts 274°
2026-05-04 00:53 38.44832 -116.52683 30030 ft 481 kts 274°
2026-05-04 00:54 38.45598 -116.61113 30034 ft 482 kts 274°
2026-05-04 00:54 38.46224 -116.69658 30032 ft 482 kts 272°
2026-05-04 00:55 38.46849 -116.78132 30046 ft 482 kts 272°
2026-05-04 00:55 38.47496 -116.86663 30036 ft 483 kts 272°
2026-05-04 00:56 38.48149 -116.95132 30025 ft 483 kts 272°
2026-05-04 00:56 38.48817 -117.03696 30033 ft 485 kts 272°
2026-05-04 00:57 38.49485 -117.12246 30022 ft 486 kts 273°
2026-05-04 00:57 38.50162 -117.20815 29996 ft 487 kts 273°
2026-05-04 00:58 38.50851 -117.29428 30010 ft 488 kts 273°
2026-05-04 00:58 38.51544 -117.38044 29992 ft 488 kts 274°
2026-05-04 00:59 38.52247 -117.46651 29986 ft 487 kts 274°
2026-05-04 00:59 38.52956 -117.55297 29989 ft 488 kts 274°
2026-05-04 01:00 38.53664 -117.63869 29972 ft 488 kts 274°
2026-05-04 01:00 38.54304 -117.72528 29956 ft 491 kts 272°
2026-05-04 01:01 38.54915 -117.81210 29978 ft 490 kts 273°
2026-05-04 01:01 38.55540 -117.89883 29998 ft 491 kts 273°
2026-05-04 01:02 38.56181 -117.98552 29987 ft 492 kts 273°
2026-05-04 01:02 38.56872 -118.07312 29965 ft 494 kts 276°
2026-05-04 01:03 38.57804 -118.15987 29973 ft 496 kts 276°
2026-05-04 01:03 38.58665 -118.24789 29962 ft 498 kts 276°
2026-05-04 01:04 38.59503 -118.33549 29971 ft 497 kts 276°
2026-05-04 01:04 38.60355 -118.42322 29972 ft 499 kts 277°
2026-05-04 01:05 38.61224 -118.51115 29960 ft 500 kts 277°
2026-05-04 01:05 38.62089 -118.59927 29956 ft 499 kts 277°
2026-05-04 01:06 38.62968 -118.68741 29963 ft 498 kts 277°
2026-05-04 01:06 38.63842 -118.77502 29968 ft 498 kts 277°
2026-05-04 01:07 38.64731 -118.86286 29968 ft 498 kts 277°
2026-05-04 01:07 38.65620 -118.95061 29967 ft 498 kts 277°
2026-05-04 01:08 38.66519 -119.03840 29965 ft 498 kts 278°
2026-05-04 01:08 38.67426 -119.12637 29980 ft 498 kts 278°
2026-05-04 01:09 38.68340 -119.21459 29976 ft 499 kts 278°
2026-05-04 01:09 38.69154 -119.30263 29974 ft 500 kts 277°
2026-05-04 01:09 38.69566 -119.34718 29543 ft 501 kts 277°
2026-05-04 01:10 38.69977 -119.39120 28696 ft 500 kts 277°
2026-05-04 01:10 38.70390 -119.43483 27919 ft 499 kts 277°
2026-05-04 01:10 38.70816 -119.47888 27141 ft 500 kts 278°
2026-05-04 01:10 38.71264 -119.52265 26315 ft 503 kts 278°
2026-05-04 01:11 38.71728 -119.56744 25478 ft 507 kts 278°
2026-05-04 01:11 38.72184 -119.61167 24653 ft 506 kts 278°
2026-05-04 01:11 38.72642 -119.65614 23800 ft 502 kts 277°
2026-05-04 01:11 38.73096 -119.70004 22974 ft 494 kts 277°
2026-05-04 01:12 38.73535 -119.74255 22138 ft 482 kts 277°
2026-05-04 01:12 38.73969 -119.78442 21360 ft 473 kts 277°
2026-05-04 01:12 38.74399 -119.82571 20574 ft 466 kts 276°
2026-05-04 01:12 38.74827 -119.86660 19794 ft 462 kts 277°
2026-05-04 01:13 38.75257 -119.90729 19023 ft 458 kts 276°
2026-05-04 01:13 38.75671 -119.94713 18259 ft 453 kts 276°
2026-05-04 01:13 38.76082 -119.98682 17506 ft 448 kts 276°
2026-05-04 01:13 38.76494 -120.02575 16763 ft 443 kts 276°
2026-05-04 01:14 38.76905 -120.06472 16011 ft 438 kts 276°
2026-05-04 01:14 38.77308 -120.10272 15286 ft 433 kts 276°
2026-05-04 01:14 38.77718 -120.14050 14551 ft 427 kts 277°
2026-05-04 01:14 38.78060 -120.17814 13807 ft 421 kts 272°
2026-05-04 01:15 38.78076 -120.21505 13193 ft 416 kts 264°
2026-05-04 01:15 38.77741 -120.25188 12844 ft 415 kts 261°
2026-05-04 01:15 38.77328 -120.28819 12518 ft 412 kts 261°
2026-05-04 01:15 38.76924 -120.32402 12249 ft 409 kts 261°
2026-05-04 01:16 38.76537 -120.36007 11986 ft 410 kts 262°
2026-05-04 01:16 38.76167 -120.39597 11596 ft 401 kts 262°
2026-05-04 01:16 38.75814 -120.43093 11309 ft 387 kts 262°
2026-05-04 01:16 38.75486 -120.46396 11099 ft 371 kts 261°
2026-05-04 01:17 38.75157 -120.49624 10823 ft 357 kts 261°
2026-05-04 01:17 38.74839 -120.52723 10582 ft 344 kts 261°
2026-05-04 01:17 38.74542 -120.55682 10367 ft 330 kts 261°
2026-05-04 01:17 38.74260 -120.58506 10195 ft 319 kts 261°
2026-05-04 01:18 38.73983 -120.61296 10106 ft 310 kts 261°
2026-05-04 01:18 38.73705 -120.64020 10029 ft 303 kts 260°
2026-05-04 01:18 38.73410 -120.66633 9873 ft 298 kts 259°
2026-05-04 01:18 38.73112 -120.69221 9510 ft 294 kts 259°
2026-05-04 01:19 38.72817 -120.71800 9250 ft 286 kts 260°
2026-05-04 01:19 38.72617 -120.74314 9035 ft 286 kts 266°
2026-05-04 01:19 38.72660 -120.76839 8695 ft 287 kts 275°
2026-05-04 01:19 38.72944 -120.79371 8379 ft 287 kts 278°
2026-05-04 01:20 38.73268 -120.81879 8041 ft 285 kts 278°
2026-05-04 01:20 38.73580 -120.84368 7736 ft 281 kts 278°
2026-05-04 01:20 38.73874 -120.86782 7484 ft 271 kts 278°
2026-05-04 01:20 38.74158 -120.89123 7330 ft 261 kts 278°
2026-05-04 01:21 38.74427 -120.91373 7227 ft 251 kts 278°
2026-05-04 01:21 38.74674 -120.93554 7139 ft 248 kts 274°
2026-05-04 01:21 38.74536 -120.95727 6978 ft 247 kts 250°
2026-05-04 01:21 38.73816 -120.97726 6557 ft 248 kts 237°
2026-05-04 01:22 38.72859 -120.99547 6020 ft 248 kts 233°
2026-05-04 01:22 38.71840 -121.01314 5520 ft 248 kts 232°
2026-05-04 01:22 38.70811 -121.03081 4983 ft 245 kts 232°
2026-05-04 01:22 38.69807 -121.04809 4449 ft 241 kts 233°
2026-05-04 01:23 38.68821 -121.06508 4001 ft 231 kts 233°
2026-05-04 01:23 38.67908 -121.08085 3796 ft 214 kts 234°
2026-05-04 01:23 38.67065 -121.09540 3573 ft 195 kts 234°
2026-05-04 01:23 38.66298 -121.10864 3345 ft 179 kts 235°
2026-05-04 01:24 38.65562 -121.12137 3069 ft 174 kts 235°
2026-05-04 01:24 38.64853 -121.13367 2870 ft 172 kts 235°
2026-05-04 01:24 38.64143 -121.14594 2633 ft 173 kts 236°
2026-05-04 01:24 38.63427 -121.15834 2399 ft 171 kts 236°
2026-05-04 01:25 38.62730 -121.17046 2181 ft 169 kts 235°
2026-05-04 01:25 38.62035 -121.18250 1966 ft 168 kts 235°
2026-05-04 01:25 38.61329 -121.19470 1760 ft 172 kts 235°
2026-05-04 01:25 38.60625 -121.20685 1500 ft 170 kts 235°
2026-05-04 01:26 38.59930 -121.21880 1274 ft 165 kts 234°
2026-05-04 01:26 38.59256 -121.23030 1093 ft 160 kts 234°
2026-05-04 01:26 38.58590 -121.24179 874 ft 159 kts 235°
2026-05-04 01:26 38.57945 -121.25307 658 ft 157 kts 234°
2026-05-04 01:27 38.57303 -121.26425 448 ft 154 kts 233°
2026-05-04 01:27 38.56677 -121.27528 262 ft 154 kts 233°
2026-05-04 01:27 38.56049 -121.28620 102 ft 148 kts 233°
2026-05-04 01:27 38.55552 -121.29476 93 ft 83 kts 234°
2026-05-04 01:28 38.55303 -121.29907 90 ft 48 kts 233°
2026-05-04 01:28 38.55110 -121.30240 87 ft 45 kts 233°
2026-05-04 01:28 38.54971 -121.30486 86 ft 25 kts 236°
2026-05-04 01:28 38.54982 -121.30666 86 ft 20 kts 322°
2026-05-04 01:29 38.55096 -121.30776 87 ft 20 kts 323°
2026-05-04 01:29 38.55211 -121.30887 87 ft 20 kts 323°
2026-05-04 01:29 38.55318 -121.30987 87 ft 15 kts 324°
2026-05-04 01:29 38.55399 -121.31065 87 ft 13 kts 323°
2026-05-04 01:30 38.55466 -121.31089 87 ft 10 kts 45°
2026-05-04 01:30 38.55504 -121.31028 89 ft 7 kts 52°
2026-05-04 01:30 38.55534 -121.30975 90 ft 8 kts 52°
2026-05-04 01:30 38.55576 -121.30975 90 ft 5 kts 325°
2026-05-04 01:31 38.55588 -121.30986 90 ft 0 kts 324°